Location: Morgantown
(40.9734°N, 80.6323°W)
Time: 00:11:55
(UTC+00:00)

Cosmos 968 Rocket - Pass Details

Date: 29 October 2020
Orbit: 741 x 770 km, 74.0° (Epoch: 03 December)

Event Time Altitude Azimuth Distance (km) Brightness Sun altitude
Rises 23:17:44 0° 344° (NNW) 3,233 6.8 -11.2°
Reaches altitude 10° 23:20:10 10° 348° (NNW) 2,299 6.0 -11.6°
Maximum altitude 23:25:19 59° 68° (ENE) 871 3.5 -12.6°
Drops below altitude 10° 23:30:23 10° 148° (SSE) 2,265 5.7 -13.5°
Sets 23:32:45 0° 152° (SSE) 3,181 6.5 -14.0°
